Find Starlink 3241

NORAD ID: 49745 Int'l Des: 2021-115 Owner: SPXS Country: US Constellation: starlink operational
LEOCIRCULAR

Live-Position

3D-Globus wird geladen...

Über Starlink 3241

Beschreibung wird geladen...

Nächste Überflüge

Passes for default location (London). Set your location on the main map for personalized predictions.

Höhenverlauf

Loading altitude history...

Zweizeiliger Elementsatz

1 49745U 21115X 26133.27487562 -.00000085 00000-0 12716-4 0 9990
2 49745 53.2176 219.1561 0001193 78.4123 281.7003 15.08833707245283
Epoch: 13. Mai 2026 • Age: 11 hours

Aktueller Status

Höhe 552.4 km
Geschwindigkeit 7.58 km/s
Subsatellitenpunkt -37.05°S, 57.31°W
Startdatum 2. Dez. 2021
Alter 4.4 years
Typ internet

Technische Details

Klassifizierung Payload
Masse 290.00 kg
Trockenmasse 270.00 kg
Gesamtmasse 290.00 kg
Länge 0.20 m
Durchmesser 2.80 m
Spannweite 9.00 m
Form Box + pan
Hersteller SPXS
Bus-Typ Starlink
Phasenstatus In Orbit
Besitzer/Staat SPXS/US

Most Searched